TimeEDT,TemperatureF,Dew PointF,Humidity,Sea Level PressureIn,VisibilityMPH,Wind Direction,Wind SpeedMPH,Gust SpeedMPH,PrecipitationIn,Events,Conditions,WindDirDegrees,DateUTC
12:53 AM,73.9,64.0,71,30.12,10.0,SSW,5.8,-,N/A,,Clear,210,2013-08-21 04:53:00
1:53 AM,73.9,64.0,71,30.12,10.0,SW,6.9,-,N/A,,Clear,220,2013-08-21 05:53:00
2:53 AM,72.0,64.0,76,30.12,10.0,SW,5.8,-,N/A,,Clear,220,2013-08-21 06:53:00
3:53 AM,73.0,64.0,73,30.12,10.0,SW,4.6,-,N/A,,Clear,230,2013-08-21 07:53:00
4:53 AM,70.0,63.0,78,30.11,10.0,SW,4.6,-,N/A,,Clear,220,2013-08-21 08:53:00
5:53 AM,70.0,62.1,76,30.12,10.0,Calm,Calm,-,N/A,,Clear,0,2013-08-21 09:53:00
6:53 AM,70.0,62.1,76,30.12,8.0,SW,3.5,-,N/A,,Clear,230,2013-08-21 10:53:00
7:53 AM,72.0,63.0,73,30.14,7.0,WSW,3.5,-,N/A,,Clear,240,2013-08-21 11:53:00
8:53 AM,75.0,63.0,66,30.15,8.0,SW,6.9,-,N/A,,Clear,230,2013-08-21 12:53:00
9:53 AM,79.0,62.1,56,30.14,10.0,WSW,11.5,18.4,N/A,,Clear,240,2013-08-21 13:53:00
10:53 AM,81.0,64.0,56,30.13,10.0,WSW,8.1,-,N/A,,Clear,240,2013-08-21 14:53:00
11:53 AM,84.0,64.0,51,30.13,10.0,WSW,12.7,-,N/A,,Clear,240,2013-08-21 15:53:00
12:53 PM,84.9,64.0,49,30.11,10.0,SSW,12.7,18.4,N/A,,Mostly Cloudy,210,2013-08-21 16:53:00
1:53 PM,87.1,63.0,44,30.09,10.0,SSW,10.4,18.4,N/A,,Scattered Clouds,210,2013-08-21 17:53:00
2:53 PM,86.0,64.0,48,30.08,10.0,SSW,11.5,18.4,N/A,,Partly Cloudy,200,2013-08-21 18:53:00
3:53 PM,86.0,64.0,48,30.05,10.0,South,11.5,-,N/A,,Clear,180,2013-08-21 19:53:00
4:53 PM,84.0,64.9,53,30.04,10.0,SSW,12.7,-,N/A,,Partly Cloudy,200,2013-08-21 20:53:00
5:53 PM,82.9,64.0,53,30.04,10.0,SSW,12.7,-,N/A,,Scattered Clouds,210,2013-08-21 21:53:00
6:53 PM,82.0,64.0,54,30.02,10.0,South,12.7,20.7,N/A,,Partly Cloudy,190,2013-08-21 22:53:00
7:53 PM,81.0,64.0,56,30.01,10.0,SSW,11.5,18.4,N/A,,Clear,200,2013-08-21 23:53:00
8:53 PM,79.0,63.0,58,30.01,10.0,South,5.8,-,N/A,,Clear,190,2013-08-22 00:53:00
9:53 PM,77.0,64.9,66,30.03,10.0,SSW,6.9,-,N/A,,Clear,200,2013-08-22 01:53:00
10:53 PM,75.9,66.9,74,30.04,10.0,SSW,4.6,-,N/A,,Clear,200,2013-08-22 02:53:00
11:53 PM,75.9,66.9,74,30.04,10.0,SW,5.8,-,N/A,,Clear,220,2013-08-22 03:53:00